#timestamp,LO_Frequency,Hit,StdDev 
1698458415.3,286047000.8,N
1698458435.2,286047001.2,N
1698458455.9,286047002.4,N
1698458475.7,286047001.6,N
1698458495.6,286047001.4,N
1698458515.4,286047005.6,Y
1698458535.3,286047003.6,P
1698458555.1,286047003.0,N
1698458556.0,286047003.0,N
1698458575.8,286047005.7,Y
1698458595.7,286047005.7,P
1698458615.5,286047004.8,P
1698458635.4,286047005.0,P
1698458655.2,286047005.4,Y
1698458675.0,286047000.7,P
1698458675.9,286047000.7,N
1698458695.8,286046998.2,N
1698458715.6,286046996.7,N
1698458735.4,286046999.3,N
1698458755.3,286046997.5,N
1698458775.1,286046995.3,N
1698458795.9,286046995.1,N
1698458815.7,286046995.0,N
1698458835.5,286046995.1,N
1698458855.4,286046997.6,N
1698458875.2,286046994.9,N
1698458895.0,286046996.1,N
1698458895.9,286046996.1,N
1698458915.8,286046995.0,N
1698458935.6,286046997.5,N
1698458955.5,286046997.3,N
1698458975.3,286046998.8,N
1698458995.1,286047001.1,N
1698459015.9,286047002.7,N
1698459035.7,286047002.2,N
1698459055.5,286046999.8,N
1698459075.4,286047000.2,N
1698459095.2,286047001.0,N
1698459115.1,286047000.9,N
1698459116.0,286047000.9,N
1698459135.8,286046999.9,N
1698459155.6,286047002.8,N
1698459175.5,286047002.6,N
1698459195.3,286046999.9,N
1698459215.1,286047001.2,N
1698459235.9,286046999.0,N
1698459255.7,286046999.3,N
1698459275.6,286046999.1,N
1698459295.4,286046997.1,N
1698459315.2,286046997.0,N
1698459335.1,286046997.3,N
1698459336.0,286046997.3,N
1698459355.8,286046997.1,N
1698459375.6,286046996.5,N
1698459395.5,286046997.4,N
1698459415.3,286046997.9,N
1698459435.2,286046997.4,N
1698459455.9,286046996.7,N
1698459475.7,286046996.6,N
1698459495.6,286046999.5,N
1698459515.4,286046996.5,N
1698459535.2,286046999.4,N
1698459555.1,286046998.4,N
1698459556.0,286046998.4,N
1698459575.8,286046999.6,N
1698459595.7,286046998.6,N
1698459615.5,286047000.8,N
1698459635.3,286047001.2,N
1698459655.2,286047000.9,N
1698459675.0,286047000.5,N
1698459675.9,286047000.5,N
1698459695.8,286047000.2,N
1698459715.6,286046999.9,N
1698459735.4,286047000.6,N
1698459755.3,286047000.5,N
1698459775.1,286047000.4,N
1698459795.8,286047000.9,N
1698459815.7,286047000.4,N
1698459835.5,286046999.9,N
1698459855.4,286047002.8,N
1698459875.2,286047000.0,N
1698459895.0,286046999.7,N
1698459895.9,286046999.7,N
1698459915.8,286047002.7,N
1698459935.6,286047002.3,N
1698459955.4,286047003.6,N
1698459975.3,286047007.4,Y
1698459995.1,286047006.1,P
1698460015.9,286047006.9,N
1698460035.7,286047005.7,N
1698460055.5,286047005.1,N
1698460075.4,286047005.3,N
1698460095.2,286047005.4,N
1698460115.0,286047003.3,N
1698460116.0,286047003.3,N
1698460135.8,286047003.0,N
1698460155.6,286047002.9,N
1698460175.5,286047003.6,N
1698460195.3,286047003.7,N
1698460215.1,286047003.5,N
1698460235.9,286047004.2,N
1698460255.7,286047004.2,N
1698460275.6,286047004.3,N
1698460295.4,286047004.4,N
1698460315.2,286047004.0,N
1698460335.1,286047004.2,N
1698460336.0,286047004.2,N
1698460355.8,286047003.5,N
1698460375.6,286047004.4,Y
1698460395.5,286046999.0,P
1698460415.3,286047001.2,N
1698460435.2,286046998.2,N
1698460455.9,286046998.3,N
1698460475.7,286046999.0,N
1698460495.6,286046998.6,N
1698460515.4,286047001.1,N
1698460535.2,286046998.7,N
1698460555.1,286046998.5,N
1698460556.0,286046998.5,N
1698460605.9,286047000.4,E
1698460615.8,286047000.3,N
1698460635.6,286046999.9,P
1698460655.5,286047000.6,N
1698460675.3,286046999.9,N
1698460695.1,286047002.8,Y
1698460715.9,286046999.9,P
1698460735.7,286047002.8,P
1698460755.5,286047000.4,N
1698460775.4,286046999.9,N
1698460795.2,286046999.7,N
1698460815.1,286047002.3,N
1698460816.0,286047002.3,N
1698460835.8,286046999.8,N
1698460855.6,286047002.6,N
1698460875.5,286047002.3,N
1698460895.3,286047002.4,N
1698460915.1,286046999.7,N
1698460935.9,286047001.5,N
1698460955.7,286047002.1,N
1698460975.6,286047002.1,N
1698460995.4,286047001.3,N
1698461015.2,286047001.4,N
1698461035.1,286047002.0,N
1698461036.0,286047002.0,N
1698461055.8,286047001.6,N
1698461075.6,286047004.0,Y
1698461095.5,286047002.3,P
1698461115.3,286047004.4,P
1698461135.2,286047011.9,P
1698461155.9,286047004.0,N
1698461175.7,286047001.8,N
1698461195.6,286047003.6,N
1698461215.4,286047004.1,N
1698461235.3,286047003.5,N
1698461255.1,286047003.0,N
1698461256.0,286047003.0,N
1698461275.8,286047003.1,N
1698461295.7,286047002.9,N
1698461315.5,286047003.6,N
1698461335.3,286047003.5,N
1698461355.2,286047003.3,N
1698461375.0,286047002.9,N
1698461375.9,286047002.9,N
1698461395.8,286047005.8,N
1698461415.6,286047005.7,N
1698461435.4,286047004.8,N
1698461455.3,286047005.7,N
1698461475.1,286047004.6,N
1698461495.9,286047007.2,Y
1698461515.7,286047001.9,P
1698461535.5,286047001.3,N
1698461555.4,286047004.4,P
1698461575.2,286047003.9,N
1698461595.0,286047003.9,Y
1698461595.9,286047003.9,P
1698461615.8,286046999.8,N
1698461635.6,286047001.6,N
1698461655.5,286047002.6,N
1698461675.3,286047002.6,N
1698461695.1,286047002.2,N
1698461715.9,286047001.3,N
1698461735.7,286047001.9,N
1698461755.5,286047001.5,N
1698461775.4,286047003.9,Y
1698461795.2,286047000.2,P
1698461815.1,286047001.9,N
1698461816.0,286047001.9,N
1698461835.8,286047002.0,N
1698461855.6,286047002.1,N
1698461875.5,286047004.4,Y
1698461895.3,286046999.8,P
1698461915.2,286047002.5,N
1698461935.9,286047002.5,N
1698461955.7,286047002.8,N
1698461975.6,286046999.9,N
1698461995.4,286047002.6,N
